Topeka, KS

4:27 AM CDT on October 15, 2019 (GMT -0500)
Billard Municipal

Weather History for KTOP - August, 2019

Change the Weather History Date:

Sunday, August 11, 2019

  Actual Average Record
Temperature  
Mean Temperature 80 °F 78 °F  
Max Temperature 87 °F 89 °F 110 °F (1934)
Min Temperature 73 °F 67 °F 51 °F (2004)
Degree Days  
Heating Degree Days 0 0  
Month to date heating degree days 0 0  
Since 1 June heating degree days 0 8  
Since 1 July heating degree days 0 0  
Cooling Degree Days 15 13  
Month to date cooling degree days 143 152  
Year to date cooling degree days 1022 994  
Since 1 June cooling degree days 910 868  
Growing Degree Days 30 (Base 50)    
Moisture  
Dew Point 73 °F    
Average Humidity 80    
Maximum Humidity 94    
Minimum Humidity 65    
Precipitation  
Precipitation 0.37 in 0.13 in 2.09 in (1941)
Month to date precipitation 2.89 1.47  
Year to date precipitation 31.75 23.80  
Snow  
Snow 0.00 in 0.00 in 0.00 in ()
Month to date snowfall 0.0 0.0  
Year to date snowfall 18.5 11.3  
Since 1 July snowfall 0.0 0.0  
Snow Depth 0.00 in    
Sea Level Pressure  
Sea Level Pressure 29.92 in    
Wind  
Wind Speed 5 mph (SSE)    
Max Wind Speed 14 mph    
Max Gust Speed 19 mph    
Visibility 9 miles    
Events Rain , Thunderstorm    
T = Trace of Precipitation, MM = Missing Value Source: NWS Daily Summary

Daily Weather History Graph

Daily Weather History Graph

Search for Another Location

Airport or City:

Astronomy

Aug. 11, 2019 Rise Set
Actual Time 6:31 AM CDT 8:22 PM CDT
Civil Twilight 6:03 AM CDT 8:51 PM CDT
Nautical Twilight 5:27 AM CDT 9:26 PM CDT
Astronomical Twilight 4:50 AM CDT 10:04 PM CDT
Moon 6:01 PM CDT (8/11) 2:54 AM CDT (8/11)
Length of Visible Light 14h 48m
Length of Day
13h 50m
Waxing Gibbous, 87% of the Moon is Illuminated
Aug 11
Waxing Gibbous
Aug 15
Full
Aug 23
Last Quarter
Aug 30
New
Sep 5
First Quarter

Hourly Weather History & Observations

Time (CDT) Temp. Heat Index Dew Point Humidity Pressure Visibility Wind Dir Wind Speed Gust Speed Precip Events Conditions
12:53 AM 75.9 °F - 73.9 °F 94% 29.90 in 10.0 mi Calm Calm - N/A   Clear
1:53 AM 78.1 °F - 73.9 °F 87% 29.88 in 10.0 mi Calm Calm - N/A   Clear
2:53 AM 78.1 °F - 75.0 °F 90% 29.88 in 10.0 mi Calm Calm - N/A   Partly Cloudy
3:53 AM 78.1 °F - 73.9 °F 87% 29.90 in 10.0 mi Calm Calm - N/A   Clear
4:53 AM 78.1 °F - 75.0 °F 90% 29.93 in 10.0 mi SSW 5.8 mph - 0.00 in Rain Light Rain
5:53 AM 77.0 °F - 73.9 °F 90% 29.94 in 4.0 mi WSW 4.6 mph - 0.05 in Rain , Thunderstorm Rain
6:05 AM 77.0 °F - 73.9 °F 90% 29.99 in 4.0 mi West 10.4 mph - 0.04 in Rain Rain
6:18 AM 77.0 °F - 73.9 °F 90% 30.01 in 5.0 mi West 11.5 mph - 0.08 in Rain , Thunderstorm Rain
6:53 AM 75.0 °F - 71.1 °F 87% 29.97 in 10.0 mi WSW 10.4 mph - 0.10 in Rain , Thunderstorm Light Rain
7:00 AM 75.0 °F - 71.1 °F 87% 30.01 in 9.0 mi SW 10.4 mph - 0.00 in Rain Light Rain
7:08 AM 73.9 °F - 71.1 °F 91% 30.00 in 8.0 mi SW 6.9 mph - 0.01 in Rain , Thunderstorm Rain
7:31 AM 73.0 °F - 71.1 °F 93% 30.02 in 3.0 mi SSW 8.1 mph - 0.04 in Rain , Thunderstorm Thunderstorms and Rain
7:49 AM 73.4 °F - 69.8 °F 88% 30.00 in 3.0 mi South 3.5 mph - 0.14 in Rain , Thunderstorm Heavy Rain
7:53 AM 73.0 °F - 70.0 °F 90% 29.97 in 2.0 mi SSW 4.6 mph - 0.19 in Rain , Thunderstorm Heavy Rain
8:04 AM 73.0 °F - 70.0 °F 90% 29.98 in 10.0 mi South 6.9 mph - 0.03 in Rain , Thunderstorm Light Rain
8:13 AM 73.0 °F - 70.0 °F 90% 29.98 in 10.0 mi SSE 8.1 mph - 0.03 in Rain Light Rain
8:53 AM 73.0 °F - 70.0 °F 90% 29.92 in 10.0 mi SE 6.9 mph - 0.03 in   Mostly Cloudy
9:53 AM 77.0 °F - 70.0 °F 79% 29.90 in 10.0 mi South 8.1 mph - N/A   Partly Cloudy
10:53 AM 80.1 °F 83.8 °F 72.0 °F 76% 29.94 in 10.0 mi NNW 4.6 mph - N/A   Partly Cloudy
11:53 AM 81.0 °F 85.2 °F 72.0 °F 74% 29.95 in 10.0 mi Variable 4.6 mph - N/A   Mostly Cloudy
12:53 PM 81.0 °F 85.2 °F 72.0 °F 74% 29.95 in 10.0 mi Variable 5.8 mph - N/A   Mostly Cloudy
1:53 PM 81.0 °F 85.2 °F 72.0 °F 74% 29.94 in 10.0 mi Variable 5.8 mph - N/A   Mostly Cloudy
2:53 PM 84.9 °F 90.7 °F 72.0 °F 65% 29.92 in 10.0 mi ESE 9.2 mph - N/A   Scattered Clouds
3:53 PM 86.0 °F 93.0 °F 73.0 °F 65% 29.90 in 10.0 mi SE 12.7 mph - N/A   Partly Cloudy
4:40 PM 86.0 °F 93.8 °F 73.9 °F 67% 29.91 in 10.0 mi SE 12.7 mph - N/A   Mostly Cloudy
4:53 PM 84.9 °F 91.4 °F 73.0 °F 67% 29.89 in 10.0 mi SE 12.7 mph - N/A   Mostly Cloudy
5:24 PM 86.0 °F 93.8 °F 73.9 °F 67% 29.90 in 10.0 mi ESE 9.2 mph - N/A   Scattered Clouds
5:32 PM 86.0 °F 93.8 °F 73.9 °F 67% 29.90 in 10.0 mi SE 10.4 mph - N/A   Mostly Cloudy
5:41 PM 86.0 °F 93.8 °F 73.9 °F 67% 29.90 in 10.0 mi SE 10.4 mph - N/A   Scattered Clouds
5:53 PM 86.0 °F 93.8 °F 73.9 °F 67% 29.86 in 10.0 mi SSE 8.1 mph - N/A   Partly Cloudy
6:36 PM 86.0 °F 93.8 °F 73.9 °F 67% 29.88 in 10.0 mi SE 8.1 mph - N/A   Mostly Cloudy
6:53 PM 84.9 °F 92.1 °F 73.9 °F 69% 29.85 in 10.0 mi ESE 6.9 mph - N/A   Mostly Cloudy
7:04 PM 86.0 °F 95.1 °F 75.0 °F 70% 29.88 in 10.0 mi East 4.6 mph - N/A   Scattered Clouds
7:53 PM 82.9 °F 90.8 °F 75.9 °F 79% 29.85 in 10.0 mi East 4.6 mph - N/A   Scattered Clouds
8:53 PM 80.1 °F 85.1 °F 75.0 °F 85% 29.84 in 10.0 mi East 4.6 mph - N/A   Partly Cloudy
9:20 PM 81.0 °F 86.7 °F 75.0 °F 82% 29.87 in 10.0 mi ENE 5.8 mph - N/A   Mostly Cloudy
9:53 PM 80.1 °F 85.1 °F 75.0 °F 85% 29.86 in 10.0 mi ENE 4.6 mph - N/A   Scattered Clouds
10:53 PM 80.1 °F 85.4 °F 75.9 °F 87% 29.85 in 10.0 mi ENE 4.6 mph - N/A   Mostly Cloudy
11:53 PM 79.0 °F - 75.0 °F 88% 29.85 in 10.0 mi ENE 4.6 mph - N/A   Partly Cloudy